Location: Eschentzwiller
(47.7125°N, 7.3981°E)
Time: 00:01:04
(UTC+00:00)

SeaSat 1 - Pass Details

Date: 27 October 2020
Orbit: 744 x 747 km, 108.0° (Epoch: 26 November)

Event Time Altitude Azimuth Distance (km) Brightness Sun altitude
Exits shadow 17:46:27 24° 88° (E) 1,530 3.4 -15.0°
Maximum altitude 17:48:23 32° 49° (NE) 1,281 3.2 -15.4°
Drops below altitude 10° 17:52:43 10° 348° (NNW) 2,275 5.1 -16.1°
Sets 17:55:11 0° 338° (NNW) 3,203 6.0 -16.5°
